Home > Weather > Carlisle > Past weeks

Flag for United Kingdom Past Weather in Carlisle, England, United Kingdom — Yesterday and Last 2 Weeks

Now
47 °F

Cool.


Feels Like: N/A
Forecast: 51 / 59 °F
Wind: N/A

Location: Carlisle

Current Time: Jun 28, 2016 at 7:12:33 AM

Latest Report: Jun 28, 2016 at 6:00 AM


Visibility: 8 mi

Pressure: 29.98 "Hg

Humidity: 94%

Dew Point: 46 °F

Location of CarlisleLocation

Past Weather in Carlisle — Graph

°F

Carlisle Temperature Yesterday

Maximum temperature yesterday: 62 °F (at 1:00 PM)
Minimum temperature yesterday: 53 °F (at 5:00 AM)
Average temperature yesterday: 57 °F

High & Low Weather Summary for the Past Weeks

 TemperatureHumidityPressure
High68 °F (Jun 15, 2:00 PM)100% (Jun 26, 5:00 AM)30.19 "Hg (Jun 26, 5:00 AM)
Low47 °F (Jun 28, 5:00 AM)47% (Jun 21, 5:00 PM)29.32 "Hg (Jun 14, 5:00 PM)
Average58 °F79%29.84 "Hg
* Reported Jun 13 5:00 AM — Jun 28 5:00 AM, Carlisle, Weather by CustomWeather, © 2016

Note: Actual official high and low records may vary slightly from our data, if they occured in-between our weather recording intervals... More about our weather records

Advertising

Carlisle Weather History for the Previous 24 Hours

Scroll right to see more
 ConditionsComfort  
Time TempWeatherWind HumidityBarometerVisibility
5:00 AM
Tue, Jun 28
47 °FCool.N/A94%29.98 "Hg11 mi
4:00 AM49 °FCool.N/A90%30.00 "Hg14 mi
3:00 AM49 °FCool.N/A94%30.01 "Hg11 mi
2:00 AM50 °FCool.N/A91%30.02 "Hg11 mi
1:00 AM52 °FCool.N/A85%30.03 "Hg12 mi
12:00 AM53 °FCool.N/A86%30.03 "Hg11 mi
11:00 PM
Mon, Jun 27
54 °FCool.N/A81%30.03 "Hg12 mi
10:00 PM55 °FCool.N/A71%30.03 "Hg13 mi
9:00 PM57 °FCool.N/A73%30.02 "Hg13 mi
8:00 PM57 °FCool.N/A68%30.01 "Hg14 mi
7:00 PM56 °FCool.N/A81%30.01 "Hg12 mi
6:00 PM58 °FCool.N/A66%29.99 "Hg13 mi
5:00 PM59 °FCool.N/A67%30.00 "Hg13 mi
4:00 PM57 °FCool.N/A76%30.00 "Hg11 mi
3:00 PM58 °FCool.N/A69%29.99 "Hg12 mi
2:00 PM60 °FCool.N/A65%29.98 "Hg12 mi
1:00 PM62 °FCool.N/A67%29.97 "Hg11 mi
12:00 PM58 °FCool.N/A68%29.97 "Hg12 mi
11:00 AM58 °FCool.N/A71%29.96 "Hg12 mi
10:00 AM58 °FCool.N/A67%29.96 "Hg14 mi
9:00 AM56 °FCool.N/A77%29.95 "Hg12 mi
8:00 AM56 °FCool.N/A71%29.93 "Hg13 mi
7:00 AM55 °FCool.N/A79%29.93 "Hg12 mi
Weather by CustomWeather, © 2016

See weather overviewHow to use our weather pages